Weather Roundup
Issued by NWS Chicago, IL

Home | Current Version | Previous Version | Text Only | Print | Product List | Glossary Off
Versions: 1 2 3 4 5 6 7 8 9 10 11 12 13 14 15 16 17 18 19 20 21 22 23 24 25 26 27 28 29 30 31 32 33 34 35 36 37 38 39 40 41 42 43 44 45 46 47 48 49 50

000
NZUS59 KLOT 010212
HRRLOT

CHICAGO AREA WEATHER ROUNDUP
NATIONAL WEATHER SERVICE CHICAGO/ROMEOVILLE IL
900 PM CDT FRI JUL 31 2015

NOTE: "FAIR" INDICATES FEW OR NO CLOUDS BELOW 12,000 FEET WITH NO
SIGNIFICANT WEATHER AND/OR OBSTRUCTIONS TO VISIBILITY.

* THESE STATIONS ARE NOT UNDER NWS QUALITY CONTROL. THEY ALSO MAY NOT
  REPORT WEATHER SUCH AS PRECIPITATION OR FOG.

ILZ005-006-012>014-019>023-010300-
NORTHEAST ILLINOIS

CITY           SKY/WX    TMP DP  RH WIND       PRES   REMARKS
OHARE          PTCLDY    76  49  38 NW9       29.96R
MIDWAY         PTCLDY    80  48  32 NW8       29.95R
AURORA         CLEAR     65  57  75 W7        29.98R
LANSING*       CLEAR     75  48  38 W6        29.96R
JOLIET*        CLEAR     76  55  47 W3        29.97R
WAUKEGAN       CLEAR     67  54  63 CALM      29.95R
DUPAGE AIRPORT CLEAR     73  52  47 NW6       29.97R
WHEELING       CLEAR     75  48  38 NW6       29.97R
KANKAKEE*      CLEAR     76  57  52 W6        29.97S
MORRIS*        CLEAR     69  59  71 NW6       29.97R
LEWIS AIRPORT* CLEAR     72  50  45 NW8       29.97R
NORTHERLY IS     N/A     79  46  31 W9          N/A
$$

WIZ051-052-058>065-066-070>072-010300-
SOUTHEAST WISCONSIN

CITY           SKY/WX    TMP DP  RH WIND       PRES   REMARKS
MILWAUKEE      PTCLDY    77  49  37 W9        29.94R
KENOSHA*       CLEAR     67  52  58 W6        29.95R
RACINE*        CLEAR     73  50  44 W6        29.96R
BURLINGTON     CLEAR     67  50  53 W3        29.96S
WAUKESHA       CLEAR     70  50  49 W10       29.96R
WEST BEND      CLEAR     72  48  43 W5        29.94R
$$

INZ001>003-010>013-019-020-010300-
NORTHWEST INDIANA

CITY           SKY/WX    TMP DP  RH WIND       PRES   REMARKS
GARY*          CLEAR     77  50  38 NW8       29.95R
MICHIGAN CITY* NOT AVBL
RENSSELAER*    NOT AVBL
VALPARAISO     CLEAR     69  57  65 W3        29.96R
$$

LMZ740>746-010300-
SOUTHERN LAKE MICHIGAN

STATION/POSITION TIME  SKY/WX   TEMP WIND        PRES    VSBY
                                AIR  DIR/SP/G
                 (UTC)          (F)  (DEG/KT/KT) (MB)    (MI)
HARRISON CRIB    0100            79  310/ 18/ 21   N/A
BURNHAM HARBOR   0200            79  280/  8/ 14   N/A
CALUMET HARBOR   0100            81  300/  7/ 13   N/A
BURNS HARBOR     0100            76  350/  7/  8 1014.2R
MICHIGAN CITY    0100            75  330/ 11/ 13   N/A
$$

ABBREVIATIONS USED IN REMARKS
   TC - TEMPERATURE IN CELSIUS
  WCI - WIND CHILL INDEX
   HX - HEAT INDEX
  VSB - VISIBILITY
$$



USA.gov is the U.S. government's official web portal to all federal, state and local government web resources and services.